FW7889 Weather Reports


time (UTC)temp
C
wind
direction
speed
KPH
gust
KPH
rain 1hr
cm
rain 24hr
cm
rain mn
cm
humidity
%
barometer
mb
20260503203621 8 357 6.4 9.7 0.00 0.00 0.00 45 1063.1
20260503202621 8 283 6.4 8.0 0.00 0.00 0.00 43 1062.9
20260503201617 9 264 4.8 4.8 0.00 0.00 0.00 39 1062.9
20260503200615 9 302 8.0 11.3 0.00 0.00 0.00 40 1062.8
20260503195615 9 236 11.3 14.5 0.00 0.00 0.00 37 1062.9
20260503194615 9 269 8.0 9.7 0.00 0.00 0.00 37 1063.2
20260503193613 9 316 8.0 9.7 0.00 0.00 0.00 37 1063.0
20260503192610 9 245 1.6 8.0 0.00 0.00 0.00 36 1063.1
20260503191609 9 258 11.3 14.5 0.00 0.00 0.00 39 1063.3
20260503190609 8 332 17.7 22.5 0.00 0.00 0.00 39 1063.6
20260503185608 8 333 6.4 11.3 0.00 0.00 0.00 41 1063.5
20260503184603 8 321 8.0 11.3 0.00 0.00 0.00 43 1063.6
20260503183603 8 316 6.4 9.7 0.00 0.00 0.00 43 1063.6
20260503182558 8 344 11.3 12.9 0.00 0.00 0.00 43 1063.5
20260503181553 7 6 9.7 11.3 0.00 0.00 0.00 46 1063.7
20260503180552 7 324 11.3 14.5 0.00 0.00 0.00 46 1063.8
20260503175547 7 297 4.8 8.0 0.00 0.00 0.00 46 1063.8
20260503174547 7 337 9.7 12.9 0.00 0.00 0.00 47 1063.9
20260503173544 7 325 8.0 9.7 0.00 0.00 0.00 50 1064.2
20260503172544 7 351 9.7 12.9 0.00 0.00 0.00 48 1064.3
20260503171543 7 274 1.6 1.6 0.00 0.00 0.00 48 1064.1
20260503170543 6 335 8.0 9.7 0.00 0.00 0.00 52 1064.4
20260503150525 5 326 4.8 4.8 0.00 0.00 0.00 57 1065.2
20260503130516 3 266 3.2 3.2 0.00 0.00 0.00 76 1065.8
20260503110447 1 292 0.0 0.0 0.00 0.00 0.00 97 1065.6
20260503090431 0 283 0.0 0.0 0.00 0.00 0.00 98 1065.1
20260503081422 0 284 0.0 0.0 0.00 0.00 0.00 97 1065.5
20260503080421 0 277 0.0 0.0 0.00 0.00 0.00 98 1065.4
20260503072413 0 286 0.0 0.0 0.00 0.00 0.00 97 1065.2
20260503071413 0 286 0.0 0.0 0.00 0.00 0.00 97 1065.5
20260503070412 0 286 0.0 0.0 0.00 0.00 0.00 96 1065.1
20260503054350 1 283 0.0 0.0 0.00 0.00 0.00 94 1065.6
20260503053346 1 284 0.0 0.0 0.00 0.00 0.00 94 1065.9
20260503052345 1 280 0.0 0.0 0.00 0.00 0.00 93 1065.8
20260503051343 1 290 0.0 0.0 0.00 0.00 0.00 92 1065.8
20260503050342 1 275 0.0 0.0 0.00 0.00 0.00 91 1066.0
20260503045337 1 268 0.0 0.0 0.00 0.00 0.00 92 1066.1
20260503044336 1 268 0.0 0.0 0.00 0.00 0.00 92 1066.2
20260503043336 1 278 0.0 0.0 0.00 0.00 0.00 92 1066.2
20260503042335 1 277 0.0 0.0 0.00 0.00 0.00 91 1066.5
20260503041334 1 277 0.0 0.0 0.00 0.00 0.00 91 1066.6
20260503040329 1 277 0.0 0.0 0.00 0.00 0.00 89 1066.5
20260503035328 1 277 0.0 0.0 0.00 0.15 0.15 88 1066.6
20260503034328 1 277 0.0 0.0 0.00 0.15 0.15 87 1066.7
20260503033328 1 289 0.0 0.0 0.00 0.15 0.15 86 1066.5
20260503032325 2 290 0.0 0.0 0.00 0.15 0.15 86 1066.6
20260503031320 2 301 0.0 0.0 0.00 0.15 0.15 86 1066.4
20260503030318 2 299 1.6 1.6 0.00 0.15 0.15 86 1066.6
20260503025318 2 294 1.6 1.6 0.00 0.15 0.15 86 1066.7
20260503024317 2 292 0.0 0.0 0.00 0.15 0.15 84 1066.6
20260503023317 2 288 0.0 1.6 0.00 0.15 0.15 84 1066.6
20260503022314 2 292 0.0 1.6 0.00 0.15 0.15 84 1066.7
20260503021313 2 301 0.0 0.0 0.00 0.15 0.15 85 1066.7
20260503020308 2 303 0.0 1.6 0.00 0.15 0.15 85 1066.6
20260503015307 2 303 1.6 1.6 0.00 0.15 0.15 84 1066.8
20260503014307 2 304 1.6 1.6 0.00 0.15 0.15 83 1066.9
20260503013301 2 305 1.6 1.6 0.00 0.15 0.15 82 1066.9
20260503012301 2 302 0.0 1.6 0.00 0.15 0.15 82 1066.8
20260503011301 2 313 0.0 0.0 0.00 0.15 0.15 82 1066.8
20260503010300 2 318 1.6 3.2 0.00 0.15 0.15 82 1066.8
20260503005255 2 315 1.6 1.6 0.00 0.15 0.15 83 1066.9
20260503004255 2 306 0.0 1.6 0.00 0.15 0.15 82 1066.8
20260503003254 2 322 1.6 3.2 0.00 0.15 0.15 81 1066.6
20260503002254 2 296 1.6 1.6 0.00 0.15 0.15 80 1066.8
20260503001253 3 310 1.6 1.6 0.00 0.15 0.15 78 1066.2
20260503000248 3 348 3.2 3.2 0.00 0.15 0.15 77 1066.5
20260502235242 3 318 3.2 4.8 0.00 0.15 0.15 76 1066.4
20260502234242 3 318 6.4 8.0 0.00 0.15 0.15 74 1066.2
20260502233240 4 23 8.0 9.7 0.00 0.15 0.15 74 1066.0
20260502232239 4 320 1.6 1.6 0.00 0.15 0.15 72 1066.1
20260502231234 5 311 3.2 3.2 0.00 0.15 0.15 66 1065.7
20260502230230 5 278 3.2 3.2 0.00 0.15 0.15 64 1066.0
20260502225229 5 318 3.2 3.2 0.00 0.15 0.15 63 1066.0
20260502224228 5 330 4.8 4.8 0.00 0.15 0.15 62 1065.7
20260502223223 5 286 4.8 4.8 0.00 0.15 0.15 61 1065.7
20260502222223 5 268 8.0 9.7 0.00 0.15 0.15 59 1065.6
20260502221222 5 275 8.0 9.7 0.00 0.15 0.15 56 1065.6
20260502220220 5 326 3.2 4.8 0.00 0.15 0.15 55 1065.8
20260502215221 5 336 4.8 8.0 0.00 0.15 0.15 54 1065.6
20260502214215 5 265 1.6 3.2 0.00 0.15 0.15 58 1065.5
20260502213215 5 284 4.8 9.7 0.00 0.15 0.15 58 1065.8
20260502212212 6 244 8.0 9.7 0.00 0.15 0.15 58 1065.9
20260502211210 5 332 1.6 1.6 0.00 0.15 0.15 63 1065.6
20260502210211 5 255 4.8 4.8 0.00 0.15 0.15 63 1065.7
20260502205210 5 304 6.4 8.0 0.00 0.15 0.15 62 1065.7
20260502204205 5 287 6.4 8.0 0.00 0.15 0.15 60 1065.8